Flag for France Weather past 2 weeks in Poitiers, France

Now
55 °F

Clear.


Feels Like: 55 °F
Forecast: 61 / 85 °F
Wind: 2 mph from North

Location: Poitiers Airport

Current Time: Aug 5, 2015 at 2:51:18 AM

Latest Report: Aug 5, 2015 at 2:00 AM


Visibility: 10 mi

Pressure: 30.04 "Hg

Humidity: 88%

Dew point: 52 °F

Location of PoitiersLocation

Historic Weather in Poitiers — Graph

°F

Poitiers temperature yesterday

Maximum temperature yesterday: 75 °F (at 4:00 PM)
Minimum temperature yesterday: 63 °F (at 7:00 AM)
Average temperature yesterday: 68 °F

Past Weeks' High & Low Weather Summary

 TemperatureHumidityPressure
High93 °F (Aug 3, 3:30 PM)100% (Jul 29, 4:30 AM)30.12 "Hg (Jul 29, 4:30 AM)
Low48 °F (Jul 30, 5:30 AM)21% (Aug 1, 6:00 PM)29.74 "Hg (Jul 24, 6:30 PM)
Average67 °F60%29.98 "Hg
* Reported Jul 21 1:00 AM — Aug 5 1:30 AM, Poitiers, Weather by CustomWeather, © 2015

Note: Actual official high and low records may vary slightly from our data, if they occured in-between our weather recording intervals... More about our weather records

Advertising

Poitiers weather history for previous 24 hours

 ConditionsComfort  
Time TempWeatherWind HumidityBarometerVisibility
1:30 AM
Wed, Aug 5
57 °FClear.2 mph82%30.07 "Hg10 mi
1:00 AM59 °FClear.2 mph77%30.07 "Hg10 mi
12:30 AM59 °FClear.2 mph77%30.07 "Hg10 mi
12:00 AM59 °FClear.3 mph77%30.07 "Hg10 mi
11:30 PM
Tue, Aug 4
63 °FClear.3 mph64%30.07 "Hg10 mi
11:00 PM63 °FClear.2 mph68%30.07 "Hg10 mi
10:30 PM64 °FClear.2 mph64%30.07 "Hg10 mi
10:00 PM66 °FSunny.3 mph56%30.07 "Hg10 mi
9:30 PM68 °FSunny.5 mph49%30.04 "Hg10 mi
9:00 PM72 °FSunny.5 mph44%30.07 "Hg10 mi
8:30 PM73 °FSunny.6 mph44%30.07 "Hg10 mi
8:00 PM75 °FSunny.8 mph39%30.07 "Hg10 mi
7:30 PM75 °FPassing clouds.7 mph39%30.07 "HgN/A
7:00 PM75 °FSunny.3 mph41%30.07 "Hg10 mi
6:30 PM75 °FPassing clouds.9 mph39%30.07 "HgN/A
6:00 PM75 °FSunny.3 mph41%30.07 "Hg10 mi
5:30 PM75 °FPassing clouds.7 mph39%30.07 "HgN/A
5:00 PM75 °FPassing clouds.10 mph39%30.07 "HgN/A
4:30 PM75 °FPassing clouds.7 mph39%30.07 "HgN/A
4:00 PM75 °FPassing clouds.8 mph39%30.09 "HgN/A
3:30 PM73 °FPassing clouds.9 mph41%30.09 "HgN/A
3:00 PM73 °FOvercast.9 mph44%30.09 "HgN/A
2:30 PM73 °FPartly sunny.10 mph41%30.09 "HgN/A
2:00 PM73 °FPartly sunny.13 mph47%30.09 "HgN/A
1:30 PM72 °FPartly sunny.6 mph50%30.09 "HgN/A
1:00 PM70 °FMostly cloudy.7 mph50%30.09 "HgN/A
12:30 PM70 °FMore clouds than sun.7 mph50%30.09 "HgN/A
12:00 PM68 °FPartly sunny.6 mph53%30.09 "HgN/A
11:30 AM68 °FOvercast.6 mph56%30.09 "HgN/A
11:00 AM66 °FPartly sunny.6 mph60%30.09 "HgN/A
10:30 AM64 °FPartly sunny.6 mph68%30.09 "HgN/A
10:00 AM64 °FPassing clouds.7 mph68%30.09 "HgN/A
9:30 AM64 °FPassing clouds.6 mph73%30.07 "HgN/A
9:00 AM63 °FPassing clouds.6 mph77%30.07 "HgN/A
8:30 AM63 °FSunny.8 mph83%30.07 "Hg10 mi
8:00 AM63 °FPassing clouds.9 mph83%30.07 "HgN/A
7:30 AM63 °FLow clouds.9 mph88%30.04 "HgN/A
7:00 AM63 °FPassing clouds.6 mph94%30.04 "HgN/A
6:30 AM64 °FClear.6 mph94%30.01 "Hg10 mi
6:00 AM64 °FMostly cloudy.7 mph94%30.01 "HgN/A
5:00 AM64 °FMild.2 mph94%30.01 "HgN/A
4:30 AM64 °FMild.6 mph94%30.01 "HgN/A
4:00 AM64 °FRain. Mostly cloudy.5 mph94%30.01 "HgN/A
3:30 AM64 °FStrong thunderstorms. Overcast.3 mph94%30.01 "HgN/A
3:00 AM64 °FMild.3 mph94%29.98 "HgN/A
2:30 AM64 °FThundershowers. Overcast.5 mph94%30.01 "HgN/A
2:00 AM66 °FThundershowers. Overcast.2 mph88%29.98 "HgN/A
Weather by CustomWeather, © 2015

See weather overviewHow to use our weather pages